Ketchikan, AK

10:48 AM AKDT on April 26, 2017 (GMT -0800)
Ketchikan International

Weather History for PAKT - March, 2014

Change the Weather History Date:

Wednesday, March 12, 2014

  Actual Average Record
Temperature  
Mean Temperature 42 °F -  
Max Temperature 46 °F 45 °F 57 °F (1965)
Min Temperature 37 °F 32 °F 15 °F (2003)
Degree Days  
Heating Degree Days 24    
Moisture  
Dew Point 39 °F    
Average Humidity 86    
Maximum Humidity 100    
Minimum Humidity 68    
Precipitation  
Precipitation 1.32 in - - ()
Sea Level Pressure  
Sea Level Pressure 29.95 in    
Wind  
Wind Speed 19 mph (SSE)    
Max Wind Speed 34 mph    
Max Gust Speed 61 mph    
Visibility 8 miles    
Events Rain    
Averages and records for this station are not official NWS values.
T = Trace of Precipitation, MM = Missing Value Source: NWS Daily Summary

Daily Weather History Graph

Daily Weather History Graph

Search for Another Location

Airport or City:

Trip Planner

Search our weather history database for the weather conditions in past years. The results will help you decide how hot, cold, wet, or windy it might be!

Date:

Astronomy

Mar. 12, 2014 Rise Set
Actual Time 7:09 AM AKDT 6:44 PM AKDT
Civil Twilight 6:32 AM AKDT 7:21 PM AKDT
Nautical Twilight 5:50 AM AKDT 8:04 PM AKDT
Astronomical Twilight 5:06 AM AKDT 8:48 PM AKDT
Moon 2:54 PM AKDT (3/12) 5:15 AM AKDT (3/12)
Length of Visible Light 12h 48m
Length of Day
11h 35m
Waxing Gibbous, 86% of the Moon is Illuminated
Mar 12
Waxing Gibbous
Mar 16
Full
Mar 23
Last Quarter
Mar 30
New
Apr 7
First Quarter

Hourly Weather History & Observations

Time (AKDT) Temp. Windchill Dew Point Humidity Pressure Visibility Wind Dir Wind Speed Gust Speed Precip Events Conditions
12:53 AM 46.9 °F - 46.0 °F 97% 29.80 in 5.0 mi SSE 26.5 mph 46.0 mph 0.30 in Rain Rain
1:31 AM 46.4 °F 36.5 °F 46.4 °F 100% 29.77 in 10.0 mi SSE 34.5 mph 49.5 mph 0.08 in Rain Light Rain
1:53 AM 46.0 °F 36.5 °F 44.1 °F 93% 29.75 in 4.0 mi SSE 31.1 mph 61.0 mph 0.14 in Rain Rain
2:34 AM 46.4 °F 37.2 °F 44.6 °F 93% 29.75 in 4.0 mi SSE 29.9 mph 44.9 mph 0.21 in Rain Rain
2:53 AM 46.0 °F 36.9 °F 44.1 °F 93% 29.74 in 4.0 mi SSE 28.8 mph 43.7 mph 0.28 in Rain Rain
3:27 AM 44.6 °F 34.6 °F 44.6 °F 100% 29.71 in 4.0 mi SSE 31.1 mph 43.7 mph 0.21 in Rain Rain
3:38 AM 46.4 °F 37.7 °F 42.8 °F 87% 29.71 in 6.0 mi SSE 26.5 mph 43.7 mph 0.26 in Rain Light Rain
3:53 AM 45.0 °F 35.2 °F 44.1 °F 97% 29.71 in 8.0 mi SE 29.9 mph 38.0 mph 0.28 in Rain Light Rain
4:53 AM 45.0 °F 36.2 °F 44.1 °F 97% 29.68 in 6.0 mi SSE 24.2 mph 41.4 mph 0.15 in Rain Light Rain
5:50 AM 44.6 °F 40.7 °F 42.8 °F 93% 29.67 in 9.0 mi South 6.9 mph 24.2 mph 0.13 in Rain Light Rain
5:53 AM 45.0 °F 38.5 °F 43.0 °F 93% 29.68 in 6.0 mi South 13.8 mph 33.4 mph 0.14 in Rain Light Rain
6:03 AM 42.8 °F 33.5 °F 39.2 °F 87% 29.72 in 5.0 mi SW 23.0 mph 41.4 mph N/A Rain Rain
6:07 AM 41.0 °F 31.1 °F 37.4 °F 87% 29.73 in 5.0 mi SW 23.0 mph 41.4 mph N/A Rain Rain
6:53 AM 41.0 °F 33.5 °F 35.6 °F 81% 29.84 in 10.0 mi WNW 13.8 mph 27.6 mph N/A   Mostly Cloudy
7:53 AM 42.1 °F 38.4 °F 34.0 °F 73% 29.92 in 10.0 mi SE 5.8 mph - N/A   Mostly Cloudy
8:53 AM 41.0 °F 39.0 °F 35.1 °F 79% 29.99 in 10.0 mi SSW 3.5 mph - N/A   Mostly Cloudy
9:00 AM 41.0 °F - 35.6 °F 81% 29.98 in 10.0 mi Calm Calm - N/A   Mostly Cloudy
9:53 AM 44.1 °F - 34.0 °F 68% 30.04 in 10.0 mi Calm Calm - N/A   Mostly Cloudy
10:53 AM 44.1 °F 39.5 °F 36.0 °F 73% 30.07 in 10.0 mi South 8.1 mph - N/A   Mostly Cloudy
11:53 AM 43.0 °F 41.3 °F 37.0 °F 80% 30.11 in 10.0 mi South 3.5 mph - 0.00 in Rain Light Rain
12:53 PM 44.1 °F 42.5 °F 37.0 °F 76% 30.12 in 10.0 mi Variable 3.5 mph - 0.01 in   Overcast
1:53 PM 44.1 °F 40.1 °F 37.9 °F 79% 30.14 in 9.0 mi South 6.9 mph - 0.00 in Rain Light Rain
2:53 PM 42.1 °F 39.2 °F 37.0 °F 82% 30.15 in 7.0 mi South 4.6 mph - 0.00 in Rain Light Rain
3:53 PM 44.1 °F 41.5 °F 36.0 °F 73% 30.16 in 10.0 mi East 4.6 mph - 0.02 in   Scattered Clouds
4:53 PM 44.1 °F 41.5 °F 36.0 °F 73% 30.16 in 10.0 mi SE 4.6 mph - N/A   Mostly Cloudy
5:53 PM 43.0 °F 41.3 °F 37.0 °F 80% 30.15 in 10.0 mi SSE 3.5 mph - N/A   Scattered Clouds
6:53 PM 39.0 °F 36.8 °F 35.1 °F 86% 30.16 in 10.0 mi SSE 3.5 mph - N/A   Scattered Clouds
7:53 PM 37.0 °F 33.3 °F 33.1 °F 86% 30.16 in 10.0 mi South 4.6 mph - N/A   Scattered Clouds
8:53 PM 37.9 °F 34.4 °F 35.1 °F 89% 30.15 in 10.0 mi South 4.6 mph - N/A   Overcast
9:53 PM 39.0 °F 34.8 °F 35.1 °F 86% 30.15 in 10.0 mi South 5.8 mph - N/A   Overcast
10:53 PM 37.9 °F 33.5 °F 36.0 °F 93% 30.16 in 10.0 mi SSE 5.8 mph - N/A   Overcast
11:19 PM 37.4 °F 32.8 °F 35.6 °F 93% 30.15 in 10.0 mi SE 5.8 mph - N/A   Mostly Cloudy
11:53 PM 37.9 °F 34.4 °F 36.0 °F 93% 30.16 in 10.0 mi SE 4.6 mph - N/A   Scattered Clouds